Location: Innsbruck
(47.2657°N, 11.3914°E)
Time: 11:24:53
(UTC+01:00)

XW-2F - Pass Details

Date: 07 December 2021
Orbit: 495 x 515 km, 97.5° (Epoch: 15 January)

Event Time Altitude Azimuth Distance (km) Brightness Sun altitude
Rises 05:37:42 0° 26° (NNE) 2,649 ? -21.1°
Reaches altitude 10° 05:40:16 10° 44° (NE) 1,754 ? -20.6°
Maximum altitude 05:43:05 20° 93° (E) 1,244 ? -20.2°
Drops below altitude 10° 05:45:54 10° 141° (SE) 1,737 ? -19.7°
Sets 05:48:24 0° 159° (SSE) 2,614 ? -19.3°
